TimeMST,TemperatureF,Dew PointF,Humidity,Sea Level PressureIn,VisibilityMPH,Wind Direction,Wind SpeedMPH,Gust SpeedMPH,PrecipitationIn,Events,Conditions,WindDirDegrees,DateUTC
12:55 AM,15.1,10.9,84,30.27,10.0,Calm,Calm,-,N/A,,Clear,0,2013-01-06 07:55:00
1:55 AM,16.0,12.0,84,30.27,10.0,West,9.2,-,N/A,,Clear,260,2013-01-06 08:55:00
2:55 AM,17.1,12.0,81,30.27,10.0,West,6.9,-,N/A,,Clear,280,2013-01-06 09:55:00
3:55 AM,18.0,12.9,81,30.26,10.0,West,11.5,-,N/A,,Clear,260,2013-01-06 10:55:00
4:55 AM,12.9,10.0,88,30.26,10.0,Calm,Calm,-,N/A,,Clear,0,2013-01-06 11:55:00
5:55 AM,12.9,10.0,88,30.25,10.0,Calm,Calm,-,N/A,,Clear,0,2013-01-06 12:55:00
6:55 AM,12.9,10.0,88,30.23,10.0,Calm,Calm,-,N/A,,Clear,0,2013-01-06 13:55:00
7:55 AM,12.0,9.0,88,30.22,10.0,Calm,Calm,-,N/A,,Clear,0,2013-01-06 14:55:00
8:55 AM,19.9,15.1,81,30.20,10.0,SW,3.5,-,N/A,,Clear,230,2013-01-06 15:55:00
9:55 AM,28.0,19.0,69,30.14,10.0,SSE,8.1,-,N/A,,Clear,150,2013-01-06 16:55:00
10:55 AM,34.0,19.0,54,30.09,10.0,South,9.2,-,N/A,,Clear,170,2013-01-06 17:55:00
11:55 AM,35.1,19.0,52,30.01,10.0,SSE,8.1,-,N/A,,Clear,160,2013-01-06 18:55:00
12:55 PM,45.0,21.9,40,29.93,10.0,South,13.8,-,N/A,,Clear,190,2013-01-06 19:55:00
1:09 PM,46.4,19.4,34,29.87,10.0,SW,20.7,-,N/A,,Clear,230,2013-01-06 20:09:00
1:55 PM,46.0,18.0,33,29.90,10.0,SW,21.9,29.9,N/A,,Clear,220,2013-01-06 20:55:00
2:55 PM,44.1,19.9,38,29.89,10.0,SW,13.8,-,N/A,,Clear,220,2013-01-06 21:55:00
3:55 PM,42.1,21.9,45,29.87,10.0,SW,8.1,-,N/A,,Clear,230,2013-01-06 22:55:00
4:55 PM,39.0,23.0,53,29.87,10.0,SW,11.5,-,N/A,,Clear,230,2013-01-06 23:55:00
5:55 PM,36.0,21.0,55,29.89,10.0,West,13.8,-,N/A,,Clear,280,2013-01-07 00:55:00
6:55 PM,30.9,19.0,61,29.90,10.0,West,8.1,-,N/A,,Clear,280,2013-01-07 01:55:00
7:55 PM,30.0,19.0,64,29.91,10.0,West,8.1,-,N/A,,Clear,280,2013-01-07 02:55:00
8:55 PM,27.0,18.0,69,29.89,10.0,West,8.1,-,N/A,,Clear,270,2013-01-07 03:55:00
9:55 PM,27.0,19.0,72,29.88,10.0,West,6.9,-,N/A,,Clear,270,2013-01-07 04:55:00
10:55 PM,26.1,18.0,71,29.90,10.0,West,3.5,-,N/A,,Clear,280,2013-01-07 05:55:00
11:55 PM,25.0,18.0,75,29.91,10.0,West,6.9,-,N/A,,Clear,280,2013-01-07 06:55:00